Time,TemperatureF,DewpointF,PressureIn,WindDirection,WindDirectionDegrees,WindSpeedMPH,WindSpeedGustMPH,Humidity,HourlyPrecipIn,Conditions,Clouds,dailyrainin,SoftwareType,DateUTC
2013-01-21 00:04:00,64.0,59.0,30.01,East,79,0.0,1.0,83,0.00,,,0.00,,2013-01-21 05:04:00,
2013-01-21 00:12:00,64.0,59.0,30.01,East,79,0.0,1.0,83,0.00,,,0.00,,2013-01-21 05:12:00,
2013-01-21 00:22:00,63.0,58.0,30.02,NE,42,0.0,0.0,83,0.00,,,0.00,,2013-01-21 05:22:00,
2013-01-21 00:34:00,63.0,58.0,30.01,ENE,63,0.0,0.0,83,0.00,,,0.00,,2013-01-21 05:34:00,
2013-01-21 00:42:00,63.0,58.0,30.01,ENE,63,0.0,0.0,83,0.00,,,0.00,,2013-01-21 05:42:00,
2013-01-21 00:53:00,63.0,58.0,30.00,NE,56,1.0,2.0,83,0.00,,,0.00,,2013-01-21 05:53:00,
2013-01-21 01:03:00,63.0,58.0,30.00,ENE,63,1.0,2.0,83,0.00,,,0.00,,2013-01-21 06:03:00,
2013-01-21 01:13:00,63.0,58.0,30.00,ENE,63,1.0,2.0,83,0.00,,,0.00,,2013-01-21 06:13:00,
2013-01-21 01:23:00,63.0,58.0,30.00,ENE,61,0.0,1.0,84,0.00,,,0.00,,2013-01-21 06:23:00,
2013-01-21 01:33:00,63.0,58.0,30.00,ENE,61,0.0,0.0,84,0.00,,,0.00,,2013-01-21 06:33:00,
2013-01-21 01:43:00,63.0,58.0,30.00,ENE,61,0.0,0.0,84,0.00,,,0.00,,2013-01-21 06:43:00,
2013-01-21 01:53:00,62.0,57.0,30.01,NNE,31,0.0,0.0,84,0.00,,,0.00,,2013-01-21 06:53:00,
2013-01-21 02:03:00,62.0,57.0,30.00,NNE,31,0.0,0.0,84,0.00,,,0.00,,2013-01-21 07:03:00,
2013-01-21 02:13:00,62.0,57.0,30.00,NNE,31,0.0,0.0,84,0.00,,,0.00,,2013-01-21 07:13:00,
2013-01-21 02:23:00,62.0,57.0,30.00,NNE,31,0.0,0.0,84,0.00,,,0.00,,2013-01-21 07:23:00,
2013-01-21 02:33:00,62.0,57.0,29.99,NNE,31,0.0,0.0,84,0.00,,,0.00,,2013-01-21 07:33:00,
2013-01-21 02:42:00,62.0,57.0,29.99,NNE,31,0.0,0.0,84,0.00,,,0.00,,2013-01-21 07:42:00,
2013-01-21 02:53:00,62.0,57.0,29.98,NNE,31,0.0,0.0,84,0.00,,,0.00,,2013-01-21 07:53:00,
2013-01-21 03:03:00,62.0,57.0,29.98,NNE,31,0.0,0.0,84,0.00,,,0.00,,2013-01-21 08:03:00,
2013-01-21 03:14:00,62.0,57.0,29.98,NNE,31,0.0,0.0,84,0.00,,,0.00,,2013-01-21 08:14:00,
2013-01-21 03:23:00,62.0,57.0,29.98,NNE,31,0.0,0.0,84,0.00,,,0.00,,2013-01-21 08:23:00,
2013-01-21 03:33:00,62.0,57.0,29.98,NNE,31,0.0,0.0,84,0.00,,,0.00,,2013-01-21 08:33:00,
2013-01-21 03:42:00,62.0,57.0,29.98,NNE,31,0.0,0.0,84,0.00,,,0.00,,2013-01-21 08:42:00,
2013-01-21 03:53:00,61.0,56.0,29.97,NNE,31,0.0,0.0,84,0.00,,,0.00,,2013-01-21 08:53:00,
2013-01-21 04:03:00,61.0,56.0,29.97,NNE,31,0.0,0.0,84,0.00,,,0.00,,2013-01-21 09:03:00,
2013-01-21 04:12:00,61.0,56.0,29.97,NNE,31,0.0,0.0,84,0.00,,,0.00,,2013-01-21 09:12:00,
2013-01-21 04:23:00,61.0,56.0,29.96,NNE,31,0.0,0.0,85,0.00,,,0.00,,2013-01-21 09:23:00,
2013-01-21 04:33:00,61.0,56.0,29.96,NNE,31,0.0,0.0,85,0.00,,,0.00,,2013-01-21 09:33:00,
2013-01-21 04:42:00,61.0,56.0,29.96,NNE,31,0.0,0.0,85,0.00,,,0.00,,2013-01-21 09:42:00,
2013-01-21 04:53:00,61.0,56.0,29.96,NNE,31,0.0,0.0,85,0.00,,,0.00,,2013-01-21 09:53:00,
2013-01-21 05:02:00,60.0,55.0,29.96,NNE,31,0.0,0.0,85,0.00,,,0.00,,2013-01-21 10:02:00,
2013-01-21 05:12:00,60.0,55.0,29.96,NNE,31,0.0,0.0,85,0.00,,,0.00,,2013-01-21 10:12:00,
2013-01-21 05:22:00,60.0,55.0,29.96,NNE,31,0.0,0.0,85,0.00,,,0.00,,2013-01-21 10:22:00,
2013-01-21 05:33:00,60.0,56.0,29.96,NNE,31,0.0,0.0,86,0.00,,,0.00,,2013-01-21 10:33:00,
2013-01-21 05:43:00,60.0,56.0,29.96,NNE,31,0.0,0.0,86,0.00,,,0.00,,2013-01-21 10:43:00,
2013-01-21 05:53:00,61.0,57.0,29.96,NNE,31,0.0,0.0,86,0.00,,,0.00,,2013-01-21 10:53:00,
2013-01-21 06:03:00,61.0,57.0,29.96,NNE,31,0.0,0.0,86,0.00,,,0.00,,2013-01-21 11:03:00,
2013-01-21 06:13:00,61.0,57.0,29.96,NNE,31,0.0,0.0,86,0.00,,,0.00,,2013-01-21 11:13:00,
2013-01-21 06:23:00,60.0,56.0,29.96,NNE,31,0.0,0.0,86,0.00,,,0.00,,2013-01-21 11:23:00,
2013-01-21 06:33:00,60.0,56.0,29.96,NNE,31,0.0,0.0,86,0.00,,,0.00,,2013-01-21 11:33:00,
2013-01-21 06:43:00,60.0,56.0,29.96,NNE,31,0.0,0.0,86,0.00,,,0.00,,2013-01-21 11:43:00,
2013-01-21 06:53:00,60.0,56.0,29.97,NNE,31,0.0,0.0,86,0.00,,,0.00,,2013-01-21 11:53:00,
2013-01-21 07:02:00,60.0,56.0,29.97,NNE,31,0.0,0.0,87,0.00,,,0.00,,2013-01-21 12:02:00,
2013-01-21 07:12:00,60.0,56.0,29.97,NNE,31,0.0,0.0,87,0.00,,,0.00,,2013-01-21 12:12:00,
2013-01-21 07:22:00,60.0,56.0,29.98,NNE,31,0.0,0.0,87,0.00,,,0.00,,2013-01-21 12:22:00,
2013-01-21 07:33:00,60.0,56.0,29.99,NNE,31,0.0,0.0,87,0.00,,,0.00,,2013-01-21 12:33:00,
2013-01-21 07:42:00,60.0,56.0,29.99,NNE,31,0.0,0.0,87,0.00,,,0.00,,2013-01-21 12:42:00,
2013-01-21 07:53:00,60.0,56.0,29.98,NNW,329,0.0,0.0,87,0.00,,,0.00,,2013-01-21 12:53:00,
2013-01-21 08:03:00,61.0,57.0,29.98,NNW,329,0.0,0.0,87,0.00,,,0.00,,2013-01-21 13:03:00,
2013-01-21 08:13:00,61.0,57.0,29.98,NNW,329,0.0,0.0,87,0.00,,,0.00,,2013-01-21 13:13:00,
2013-01-21 08:23:00,61.0,57.0,29.99,NNW,346,0.0,2.0,87,0.00,,,0.00,,2013-01-21 13:23:00,
2013-01-21 08:33:00,61.0,57.0,30.00,North,351,0.0,0.0,87,0.00,,,0.00,,2013-01-21 13:33:00,
2013-01-21 08:43:00,61.0,57.0,30.00,North,351,0.0,0.0,87,0.00,,,0.00,,2013-01-21 13:43:00,
2013-01-21 08:54:00,61.0,57.0,30.00,North,355,0.0,0.0,87,0.00,,,0.00,,2013-01-21 13:54:00,
2013-01-21 09:03:00,61.0,57.0,30.00,North,360,0.0,1.0,87,0.00,,,0.00,,2013-01-21 14:03:00,
2013-01-21 09:12:00,61.0,57.0,30.00,North,360,0.0,1.0,87,0.00,,,0.00,,2013-01-21 14:12:00,
2013-01-21 09:23:00,62.0,58.0,30.01,NNW,340,1.0,2.0,87,0.00,,,0.00,,2013-01-21 14:23:00,
2013-01-21 09:32:00,62.0,58.0,30.01,NW,310,0.0,0.0,87,0.00,,,0.00,,2013-01-21 14:32:00,
2013-01-21 09:43:00,62.0,58.0,30.01,NW,310,0.0,0.0,87,0.00,,,0.00,,2013-01-21 14:43:00,
2013-01-21 09:53:00,62.0,58.0,30.02,NW,321,0.0,0.0,86,0.00,,,0.00,,2013-01-21 14:53:00,
2013-01-21 10:03:00,63.0,59.0,30.02,WSW,242,0.0,0.0,86,0.00,,,0.00,,2013-01-21 15:03:00,
2013-01-21 10:13:00,63.0,59.0,30.02,WSW,242,0.0,0.0,86,0.00,,,0.00,,2013-01-21 15:13:00,
2013-01-21 10:23:00,63.0,59.0,30.03,WSW,242,0.0,0.0,87,0.00,,,0.00,,2013-01-21 15:23:00,
2013-01-21 10:33:00,63.0,59.0,30.03,WSW,242,0.0,0.0,87,0.00,,,0.00,,2013-01-21 15:33:00,
2013-01-21 10:43:00,63.0,59.0,30.03,WSW,242,0.0,0.0,87,0.00,,,0.00,,2013-01-21 15:43:00,
2013-01-21 10:53:00,64.0,60.0,30.03,WSW,245,0.0,0.0,87,0.00,,,0.00,,2013-01-21 15:53:00,
2013-01-21 11:04:00,64.0,60.0,30.03,ESE,105,0.0,0.0,87,0.00,,,0.00,,2013-01-21 16:04:00,
2013-01-21 11:13:00,64.0,60.0,30.03,ESE,105,0.0,0.0,87,0.00,,,0.00,,2013-01-21 16:13:00,
2013-01-21 11:23:00,67.0,62.0,30.02,East,97,0.0,1.0,85,0.00,,,0.00,,2013-01-21 16:23:00,
2013-01-21 11:33:00,68.0,63.0,30.02,ENE,78,0.0,1.0,83,0.00,,,0.00,,2013-01-21 16:33:00,
2013-01-21 11:43:00,68.0,63.0,30.02,ENE,78,0.0,1.0,83,0.00,,,0.00,,2013-01-21 16:43:00,
2013-01-21 11:53:00,69.0,63.0,30.01,East,90,0.0,0.0,81,0.00,,,0.00,,2013-01-21 16:53:00,
2013-01-21 12:12:00,73.0,65.0,30.01,NE,34,0.0,0.0,75,0.00,,,0.00,,2013-01-21 17:12:00,
2013-01-21 12:23:00,73.0,63.0,30.00,ESE,119,1.0,3.0,72,0.00,,,0.00,,2013-01-21 17:23:00,
2013-01-21 12:33:00,74.0,64.0,29.98,East,90,0.0,0.0,71,0.00,,,0.00,,2013-01-21 17:33:00,
2013-01-21 12:43:00,74.0,64.0,29.98,East,90,0.0,0.0,71,0.00,,,0.00,,2013-01-21 17:43:00,
2013-01-21 12:53:00,76.0,64.0,29.98,NW,305,0.0,0.0,67,0.00,,,0.00,,2013-01-21 17:53:00,
2013-01-21 13:03:00,76.0,63.0,29.97,WSW,238,1.0,2.0,65,0.00,,,0.00,,2013-01-21 18:03:00,
2013-01-21 13:12:00,76.0,63.0,29.97,WSW,238,1.0,2.0,65,0.00,,,0.00,,2013-01-21 18:12:00,
2013-01-21 13:23:00,76.0,63.0,29.96,NW,315,0.0,0.0,64,0.00,,,0.00,,2013-01-21 18:23:00,
2013-01-21 13:33:00,78.0,62.0,29.95,WNW,296,5.0,9.0,58,0.00,,,0.00,,2013-01-21 18:33:00,
2013-01-21 13:43:00,78.0,62.0,29.95,WNW,296,5.0,9.0,58,0.00,,,0.00,,2013-01-21 18:43:00,
2013-01-21 13:53:00,75.0,62.0,29.94,NW,323,7.0,11.0,65,0.00,,,0.00,,2013-01-21 18:53:00,
2013-01-21 14:03:00,76.0,63.0,29.95,WNW,302,7.0,10.0,64,0.00,,,0.00,,2013-01-21 19:03:00,
2013-01-21 14:12:00,76.0,63.0,29.95,WNW,302,7.0,10.0,64,0.00,,,0.00,,2013-01-21 19:12:00,
2013-01-21 14:22:00,75.0,62.0,29.95,WNW,293,5.0,8.0,64,0.00,,,0.00,,2013-01-21 19:22:00,
2013-01-21 14:33:00,76.0,62.0,29.95,WNW,283,8.0,13.0,63,0.00,,,0.00,,2013-01-21 19:33:00,
2013-01-21 14:43:00,76.0,62.0,29.95,WNW,283,8.0,13.0,63,0.00,,,0.00,,2013-01-21 19:43:00,
2013-01-21 14:53:00,75.0,61.0,29.95,WNW,300,10.0,14.0,61,0.00,,,0.00,,2013-01-21 19:53:00,
2013-01-21 15:12:00,76.0,61.0,29.94,WNW,287,3.0,10.0,60,0.00,,,0.00,,2013-01-21 20:12:00,
2013-01-21 15:23:00,76.0,62.0,29.94,WNW,283,5.0,7.0,61,0.00,,,0.00,,2013-01-21 20:23:00,
2013-01-21 15:33:00,75.0,61.0,29.94,NW,326,4.0,8.0,62,0.00,,,0.00,,2013-01-21 20:33:00,
2013-01-21 15:43:00,75.0,61.0,29.94,NW,326,4.0,8.0,62,0.00,,,0.00,,2013-01-21 20:43:00,
2013-01-21 15:53:00,75.0,61.0,29.94,West,267,6.0,10.0,62,0.00,,,0.00,,2013-01-21 20:53:00,
2013-01-21 16:04:00,75.0,61.0,29.94,WNW,299,9.0,12.0,62,0.00,,,0.00,,2013-01-21 21:04:00,
2013-01-21 16:12:00,75.0,61.0,29.94,WNW,299,9.0,12.0,62,0.00,,,0.00,,2013-01-21 21:12:00,
2013-01-21 16:23:00,74.0,61.0,29.94,WNW,292,6.0,8.0,63,0.00,,,0.00,,2013-01-21 21:23:00,
2013-01-21 16:33:00,74.0,61.0,29.94,NW,309,9.0,13.0,63,0.00,,,0.00,,2013-01-21 21:33:00,
2013-01-21 16:43:00,74.0,61.0,29.94,NW,309,9.0,13.0,63,0.00,,,0.00,,2013-01-21 21:43:00,
2013-01-21 16:54:00,72.0,60.0,29.95,WNW,290,4.0,7.0,65,0.00,,,0.00,,2013-01-21 21:54:00,
2013-01-21 17:03:00,71.0,60.0,29.95,WNW,286,4.0,8.0,68,0.00,,,0.00,,2013-01-21 22:03:00,
2013-01-21 17:13:00,71.0,60.0,29.95,WNW,286,4.0,8.0,68,0.00,,,0.00,,2013-01-21 22:13:00,
2013-01-21 17:23:00,70.0,60.0,29.95,WNW,286,4.0,7.0,70,0.00,,,0.00,,2013-01-21 22:23:00,
2013-01-21 17:33:00,69.0,60.0,29.95,NNW,333,3.0,6.0,72,0.00,,,0.00,,2013-01-21 22:33:00,
2013-01-21 17:43:00,69.0,60.0,29.95,NNW,333,3.0,6.0,72,0.00,,,0.00,,2013-01-21 22:43:00,
2013-01-21 17:53:00,69.0,60.0,29.96,West,273,4.0,7.0,72,0.00,,,0.00,,2013-01-21 22:53:00,
2013-01-21 18:03:00,68.0,59.0,29.96,WNW,300,2.0,4.0,72,0.00,,,0.00,,2013-01-21 23:03:00,
2013-01-21 18:13:00,68.0,59.0,29.96,WNW,300,2.0,4.0,72,0.00,,,0.00,,2013-01-21 23:13:00,
2013-01-21 18:23:00,68.0,59.0,29.96,WNW,295,3.0,5.0,73,0.00,,,0.00,,2013-01-21 23:23:00,
2013-01-21 18:33:00,67.0,58.0,29.97,NNW,336,0.0,1.0,74,0.00,,,0.00,,2013-01-21 23:33:00,
2013-01-21 18:42:00,67.0,58.0,29.97,NNW,336,0.0,1.0,74,0.00,,,0.00,,2013-01-21 23:42:00,
2013-01-21 18:53:00,66.0,58.0,29.97,WNW,295,3.0,5.0,76,0.00,,,0.00,,2013-01-21 23:53:00,
2013-01-21 19:03:00,66.0,58.0,29.97,West,277,2.0,7.0,76,0.00,,,0.00,,2013-01-22 00:03:00,
2013-01-21 19:12:00,66.0,58.0,29.97,West,277,2.0,7.0,76,0.00,,,0.00,,2013-01-22 00:12:00,
2013-01-21 19:23:00,65.0,58.0,29.97,NNW,334,0.0,1.0,77,0.00,,,0.00,,2013-01-22 00:23:00,
2013-01-21 19:33:00,64.0,57.0,29.97,NW,324,1.0,3.0,78,0.00,,,0.00,,2013-01-22 00:33:00,
2013-01-21 19:43:00,64.0,57.0,29.97,NW,324,1.0,3.0,78,0.00,,,0.00,,2013-01-22 00:43:00,
2013-01-21 19:53:00,63.0,56.0,29.98,NW,312,3.0,7.0,78,0.00,,,0.00,,2013-01-22 00:53:00,
2013-01-21 20:02:00,63.0,56.0,29.98,NW,304,0.0,1.0,78,0.00,,,0.00,,2013-01-22 01:02:00,
2013-01-21 20:12:00,63.0,56.0,29.98,NW,304,0.0,1.0,78,0.00,,,0.00,,2013-01-22 01:12:00,
2013-01-21 20:23:00,62.0,55.0,29.98,NW,304,0.0,1.0,78,0.00,,,0.00,,2013-01-22 01:23:00,
2013-01-21 20:33:00,62.0,55.0,29.98,NW,319,0.0,1.0,78,0.00,,,0.00,,2013-01-22 01:33:00,
2013-01-21 20:43:00,62.0,55.0,29.98,NW,319,0.0,1.0,78,0.00,,,0.00,,2013-01-22 01:43:00,
2013-01-21 20:53:00,61.0,54.0,29.98,WNW,301,0.0,0.0,78,0.00,,,0.00,,2013-01-22 01:53:00,
2013-01-21 21:02:00,61.0,54.0,29.98,WNW,301,0.0,0.0,78,0.00,,,0.00,,2013-01-22 02:02:00,
2013-01-21 21:12:00,61.0,54.0,29.98,WNW,301,0.0,0.0,78,0.00,,,0.00,,2013-01-22 02:12:00,
2013-01-21 21:23:00,60.0,53.0,29.99,WNW,301,0.0,0.0,79,0.00,,,0.00,,2013-01-22 02:23:00,
2013-01-21 21:32:00,60.0,53.0,29.99,WNW,301,0.0,0.0,79,0.00,,,0.00,,2013-01-22 02:32:00,
2013-01-21 21:43:00,60.0,53.0,29.99,WNW,301,0.0,0.0,79,0.00,,,0.00,,2013-01-22 02:43:00,
2013-01-21 21:53:00,59.0,52.0,30.00,WNW,301,0.0,0.0,79,0.00,,,0.00,,2013-01-22 02:53:00,
2013-01-21 22:03:00,58.0,52.0,30.00,WNW,301,0.0,0.0,80,0.00,,,0.00,,2013-01-22 03:03:00,
2013-01-21 22:12:00,58.0,52.0,30.00,WNW,301,0.0,0.0,80,0.00,,,0.00,,2013-01-22 03:12:00,
2013-01-21 22:22:00,58.0,52.0,30.01,WNW,300,0.0,0.0,80,0.00,,,0.00,,2013-01-22 03:22:00,
2013-01-21 22:32:00,58.0,52.0,30.01,WNW,301,0.0,0.0,81,0.00,,,0.00,,2013-01-22 03:32:00,
2013-01-21 22:42:00,58.0,52.0,30.01,WNW,301,0.0,0.0,81,0.00,,,0.00,,2013-01-22 03:42:00,
2013-01-21 22:53:00,57.0,52.0,30.01,WNW,301,0.0,0.0,82,0.00,,,0.00,,2013-01-22 03:53:00,
2013-01-21 23:03:00,57.0,52.0,30.01,WNW,300,0.0,0.0,82,0.00,,,0.00,,2013-01-22 04:03:00,
2013-01-21 23:12:00,57.0,52.0,30.01,WNW,300,0.0,0.0,82,0.00,,,0.00,,2013-01-22 04:12:00,
2013-01-21 23:22:00,57.0,52.0,30.01,WNW,301,0.0,0.0,83,0.00,,,0.00,,2013-01-22 04:22:00,
2013-01-21 23:33:00,57.0,52.0,30.01,WNW,301,0.0,0.0,84,0.00,,,0.00,,2013-01-22 04:33:00,
2013-01-21 23:42:00,57.0,52.0,30.01,WNW,301,0.0,0.0,84,0.00,,,0.00,,2013-01-22 04:42:00,
2013-01-21 23:53:00,57.0,53.0,30.01,NW,304,0.0,0.0,85,0.00,,,0.00,,2013-01-22 04:53:00,